| time (UTC) | temp F | wind direction | speed MPH | gust MPH | rain 1hr in | rain 24hr in | rain mn in | humidity % | barometer mb |
| 20260505074545 | 58 | 322 | 0.0 | 2.0 | 0.04 | 0.36 | 0.04 | 89 | 1009.2 |
| 20260505073055 | 58 | 318 | 0.0 | 2.0 | 0.05 | 0.35 | 0.03 | 88 | 1009.0 |
| 20260505071545 | 58 | 314 | 0.0 | 1.0 | 0.05 | 0.33 | 0.01 | 88 | 1009.0 |
| 20260505070040 | 58 | 314 | 0.0 | 3.0 | 0.05 | 0.32 | 0.00 | 88 | 1008.6 |
| 20260505064537 | 58 | 328 | 0.0 | 2.0 | 0.06 | 0.32 | 0.32 | 88 | 1008.5 |
| 20260505063046 | 58 | 331 | 1.0 | 4.0 | 0.06 | 0.30 | 0.30 | 87 | 1008.4 |
| 20260505061539 | 58 | 322 | 1.0 | 3.0 | 0.05 | 0.28 | 0.28 | 88 | 1008.7 |
| 20260505060035 | 58 | 119 | 0.0 | 2.0 | 0.04 | 0.27 | 0.27 | 88 | 1008.5 |
| 20260505054543 | 59 | 119 | 0.0 | 1.0 | 0.04 | 0.26 | 0.26 | 88 | 1008.2 |
| 20260505053034 | 59 | 119 | 0.0 | 1.0 | 0.03 | 0.24 | 0.24 | 86 | 1008.6 |
| 20260505051539 | 59 | 332 | 0.0 | 0.0 | 0.02 | 0.23 | 0.23 | 84 | 1008.4 |
| 20260505041542 | 60 | 300 | 0.0 | 2.0 | 0.00 | 0.21 | 0.21 | 77 | 1008.3 |
| 20260505040026 | 60 | 310 | 2.0 | 4.0 | 0.02 | 0.21 | 0.21 | 74 | 1008.1 |
| 20260505034524 | 59 | 332 | 2.0 | 7.0 | 0.04 | 0.21 | 0.21 | 74 | 1007.7 |
| 20260505033025 | 58 | 314 | 0.0 | 6.0 | 0.05 | 0.21 | 0.21 | 80 | 1007.3 |
| 20260505031530 | 57 | 103 | 0.0 | 4.0 | 0.07 | 0.21 | 0.21 | 80 | 1007.7 |
| 20260505030023 | 57 | 307 | 1.0 | 5.0 | 0.06 | 0.18 | 0.18 | 76 | 1008.5 |
| 20260505024521 | 57 | 353 | 2.0 | 6.0 | 0.07 | 0.17 | 0.17 | 78 | 1008.3 |
| 20260505023019 | 57 | 320 | 1.0 | 8.0 | 0.07 | 0.16 | 0.16 | 79 | 1008.5 |
| 20260505021517 | 58 | 304 | 0.0 | 7.0 | 0.06 | 0.14 | 0.14 | 74 | 1008.4 |
| 20260505020013 | 59 | 288 | 3.0 | 9.0 | 0.05 | 0.12 | 0.12 | 68 | 1008.1 |
| 20260505014515 | 60 | 319 | 3.0 | 11.0 | 0.04 | 0.10 | 0.10 | 68 | 1007.9 |
| 20260505013006 | 61 | 309 | 3.0 | 10.0 | 0.04 | 0.09 | 0.09 | 68 | 1007.2 |
| 20260505011503 | 61 | 319 | 2.0 | 5.0 | 0.05 | 0.08 | 0.08 | 63 | 1006.7 |
| 20260505010006 | 62 | 319 | 2.0 | 4.0 | 0.04 | 0.07 | 0.07 | 64 | 1006.7 |
| 20260505004600 | 62 | 315 | 2.0 | 8.0 | 0.03 | 0.06 | 0.06 | 62 | 1006.8 |
| 20260505003114 | 63 | 327 | 4.0 | 9.0 | 0.04 | 0.05 | 0.05 | 62 | 1006.7 |
| 20260505001558 | 64 | 314 | 3.0 | 9.0 | 0.03 | 0.03 | 0.03 | 57 | 1006.2 |
| 20260504234555 | 63 | 322 | 3.0 | 13.0 | 0.03 | 0.03 | 0.03 | 61 | 1005.9 |
| 20260504233055 | 68 | 335 | 8.0 | 16.0 | 0.00 | 0.00 | 0.00 | 46 | 1006.6 |
| 20260504231550 | 74 | 319 | 9.0 | 24.0 | 0.00 | 0.00 | 0.00 | 28 | 1006.0 |
| 20260504230108 | 75 | 328 | 10.0 | 16.0 | 0.00 | 0.00 | 0.00 | 25 | 1005.7 |
| 20260504224600 | 76 | 321 | 8.0 | 14.0 | 0.00 | 0.00 | 0.00 | 22 | 1005.5 |
| 20260504223047 | 77 | 310 | 5.0 | 16.0 | 0.00 | 0.00 | 0.00 | 21 | 1005.6 |
| 20260504221546 | 78 | 301 | 10.0 | 16.0 | 0.00 | 0.00 | 0.00 | 20 | 1005.4 |
| 20260504220052 | 79 | 349 | 8.0 | 17.0 | 0.00 | 0.00 | 0.00 | 20 | 1005.6 |
| 20260504214546 | 79 | 335 | 7.0 | 14.0 | 0.00 | 0.00 | 0.00 | 19 | 1005.2 |
| 20260504213043 | 80 | 340 | 6.0 | 12.0 | 0.00 | 0.00 | 0.00 | 18 | 1005.0 |
| 20260504211543 | 80 | 339 | 6.0 | 12.0 | 0.00 | 0.00 | 0.00 | 18 | 1005.3 |
| 20260504210055 | 80 | 275 | 2.0 | 8.0 | 0.00 | 0.00 | 0.00 | 20 | 1005.5 |
| 20260504204547 | 79 | 312 | 6.0 | 12.0 | 0.00 | 0.00 | 0.00 | 19 | 1005.7 |
| 20260504203043 | 80 | 280 | 1.0 | 8.0 | 0.00 | 0.00 | 0.00 | 20 | 1005.7 |
| 20260504201541 | 80 | 324 | 0.0 | 4.0 | 0.00 | 0.00 | 0.00 | 21 | 1006.0 |
| 20260504200049 | 79 | 293 | 2.0 | 8.0 | 0.00 | 0.00 | 0.00 | 22 | 1005.9 |
| 20260504194535 | 79 | 333 | 4.0 | 9.0 | 0.00 | 0.00 | 0.00 | 22 | 1005.8 |
| 20260504193032 | 78 | 321 | 0.0 | 5.0 | 0.00 | 0.00 | 0.00 | 24 | 1005.9 |
| 20260504191530 | 77 | 260 | 3.0 | 7.0 | 0.00 | 0.00 | 0.00 | 24 | 1006.0 |
| 20260504190029 | 77 | 321 | 1.0 | 5.0 | 0.00 | 0.00 | 0.00 | 24 | 1006.2 |
| 20260504184535 | 77 | 321 | 2.0 | 8.0 | 0.00 | 0.00 | 0.00 | 24 | 1006.4 |
| 20260504183034 | 76 | 295 | 2.0 | 6.0 | 0.00 | 0.00 | 0.00 | 24 | 1006.7 |
| 20260504181526 | 77 | 238 | 3.0 | 6.0 | 0.00 | 0.00 | 0.00 | 24 | 1006.9 |
| 20260504180026 | 76 | 321 | 0.0 | 5.0 | 0.00 | 0.00 | 0.00 | 24 | 1006.8 |
| 20260504174523 | 76 | 323 | 3.0 | 8.0 | 0.00 | 0.00 | 0.00 | 25 | 1007.1 |
| 20260504173022 | 76 | 238 | 2.0 | 6.0 | 0.00 | 0.00 | 0.00 | 26 | 1006.8 |
| 20260504171522 | 76 | 273 | 1.0 | 8.0 | 0.00 | 0.00 | 0.00 | 26 | 1007.0 |
| 20260504120112 | 68 | 329 | 1.0 | 3.0 | 0.00 | 0.00 | 0.00 | 35 | 1005.5 |
| 20260504081533 | 71 | 327 | 2.0 | 4.0 | 0.00 | 0.00 | 0.00 | 32 | 1004.9 |